STARLINK V (44254 NORAD) Tracking and Keplerian Element Data

This shows tracking and keplerian element data for the satellite.

Feedback or suggestion? Click here.




ElementValue
Catalog44254
NameSTARLINK V
Epoch Orbit458
Epoch Day173.85742521
Epoch Year2019
RAAN38.5545
Inclination53.0018
Eccentricity0.0001568
Argument of Perigee104.9505
Mean Anonmoly255.1657
Mean Motion15.05502022
Decay Rate-3.24E-06
L11 44254U 19029V 19173.85742521 -.00000324 00000-0 -30628-5 0 9990
L22 44254 53.0018 38.5545 0001568 104.9505 255.1657 15.05502022 4582

Live tracking and technical data element details for STARLINK V (NORAD 44254). STARLINK V can be tracked NOW for your location showing map with azimuth and elevation plus other details from your city location.

Track the satellite on the map from your city or location and see movement details for azimuth, elevation, latitude, longitude, range, height, and movement on the map or in text.







IsCatalogInMostPopularTable: catalog: 44254, numindb: 27
Update: records affected: 1



GetName: 44254 STARLINK V

Hit Count: updated at: Fri, 19 Jul 2019 08:49:35 GMT